Torna al catalogo

STARLINK-35855

AttivoComunicazioniVLEO
NORAD 66891·PAYLOAD·🇺🇸 United States

Lanciato Dec 4, 2025 da Vandenberg Space Force Base

Loading…

Prossimi Passaggi (prossime 24 ore)

TLE

AggiornatoSource: CelesTrak SupGP

Epoca: Sep 14, 2026, 22:55 UTC

1 66891C 25283P   26257.95534722  .00009257  00000+0  27343-3 0  2570
2 66891  53.1575 221.8296 0001483  97.5199  21.9406 15.34393586    14

Traccia STARLINK-35855 in tempo reale con AllMySat

Download on the App Store